Flag for Switzerland Weather past 2 weeks in Schwyz, Schwyz, Switzerland

Now
63 °F

Mild.


Feels Like: 63 °F
Forecast: 55 / 79 °F
Wind: 5 mph from North

Location: Altdorf

Current Time: Sep 18, 2014 at 10:05:37 AM

Latest Report: Sep 18, 2014 at 9:00 AM


Visibility: N/A

Pressure: 29.88 "Hg

Humidity: 72%

Dew point: 54 °F

Location of SchwyzLocation

Historic Weather in Schwyz — Graph

°F

Schwyz temperature yesterday

Maximum temperature yesterday: 72 °F (at 7:00 PM)
Minimum temperature yesterday: 52 °F (at 2:00 AM)
Average temperature yesterday: 63 °F

Past Weeks' High & Low Weather Summary

 TemperatureHumidityPressure
High75 °F (Sep 7, 4:00 PM)98% (Sep 14, 8:00 AM)30.14 "Hg (Sep 14, 8:00 AM)
Low47 °F (Sep 14, 8:00 AM)41% (Sep 17, 8:00 PM)29.81 "Hg (Sep 17, 5:00 PM)
Average61 °F82%29.98 "Hg
* Reported Sep 3 8:00 AM — Sep 18 8:00 AM, Schwyz, Weather by CustomWeather, © 2014

Note: Actual official high and low records may vary slightly from our data, if they occured in-between our weather recording intervals... More about our weather records

Advertising

Schwyz weather history for previous 24 hours

 ConditionsComfort  
Time TempWeatherWind HumidityBarometerVisibility
8:00 AM
Sep 18
62 °FPartly sunny.6 mph78%29.89 "Hg16 mi
7:00 AM60 °FCool.3 mph85%29.88 "HgN/A
6:00 AM63 °FMild.9 mph75%29.87 "HgN/A
5:00 AM67 °FPassing clouds.5 mph51%29.85 "Hg17 mi
4:00 AM68 °FMild.12 mph48%29.85 "HgN/A
3:00 AM69 °FMild.16 mph47%29.85 "HgN/A
2:00 AM70 °FPassing clouds.15 mph44%29.84 "Hg17 mi
1:00 AM70 °FMild.17 mph46%29.85 "HgN/A
12:00 AM69 °FMild.12 mph47%29.85 "HgN/A
11:00 PM
Sep 17
70 °FPassing clouds.13 mph46%29.85 "Hg17 mi
10:00 PM71 °FMild.15 mph43%29.84 "HgN/A
9:00 PM71 °FMild.14 mph44%29.83 "HgN/A
8:00 PM72 °FPassing clouds.14 mph41%29.81 "Hg17 mi
7:00 PM72 °FMild.15 mph43%29.81 "HgN/A
6:00 PM70 °FMild.2 mph70%29.81 "HgN/A
5:00 PM70 °FPartly sunny.6 mph76%29.81 "Hg16 mi
4:00 PM69 °FMild.6 mph73%29.82 "HgN/A
3:00 PM70 °FMild.6 mph69%29.82 "HgN/A
2:00 PM70 °FPartly sunny.9 mph66%29.83 "Hg17 mi
1:00 PM69 °FMild.10 mph66%29.85 "HgN/A
12:00 PM66 °FMild.9 mph71%29.87 "HgN/A
11:00 AM65 °FPassing clouds.5 mph76%29.88 "HgN/A
10:00 AM63 °FMild.2 mph79%29.90 "HgN/A
Weather by CustomWeather, © 2014

See weather overviewHow to use our weather pages